TimeCST,TemperatureF,Dew PointF,Humidity,Sea Level PressureIn,VisibilityMPH,Wind Direction,Wind SpeedMPH,Gust SpeedMPH,PrecipitationIn,Events,Conditions,WindDirDegrees,DateUTC
12:55 AM,41.0,40.3,97,30.33,10.0,NNE,5.8,-,N/A,,Clear,30,2012-11-29 06:55:00
1:55 AM,41.5,41.0,98,30.34,10.0,NE,5.8,-,N/A,,Clear,40,2012-11-29 07:55:00
2:55 AM,39.4,39.2,99,30.33,10.0,NNE,5.8,-,N/A,,Clear,30,2012-11-29 08:55:00
3:55 AM,39.6,39.4,99,30.33,8.0,NE,5.8,-,N/A,,Clear,40,2012-11-29 09:55:00
4:55 AM,38.3,38.3,100,30.33,6.0,NNE,3.5,-,N/A,,Clear,30,2012-11-29 10:55:00
5:50 AM,39.2,39.2,100,30.35,8.0,Calm,Calm,-,N/A,,Mostly Cloudy,0,2012-11-29 11:50:00
5:55 AM,40.1,40.1,100,30.35,9.0,Calm,Calm,-,N/A,,Mostly Cloudy,0,2012-11-29 11:55:00
6:55 AM,41.9,41.9,100,30.36,8.0,North,4.6,-,N/A,,Overcast,360,2012-11-29 12:55:00
7:55 AM,45.3,45.1,99,30.37,10.0,NE,5.8,-,N/A,,Overcast,40,2012-11-29 13:55:00
8:55 AM,49.6,48.6,96,30.38,10.0,NE,6.9,-,N/A,,Overcast,50,2012-11-29 14:55:00
9:55 AM,55.8,48.6,77,30.38,10.0,ENE,9.2,-,N/A,,Overcast,60,2012-11-29 15:55:00
10:11 AM,57.2,48.2,72,30.38,10.0,ENE,10.4,-,N/A,,Scattered Clouds,70,2012-11-29 16:11:00
10:15 AM,57.2,48.2,72,30.38,10.0,East,10.4,-,N/A,,Mostly Cloudy,80,2012-11-29 16:15:00
10:25 AM,59.0,48.2,67,30.38,10.0,East,11.5,-,N/A,Rain,Light Rain,80,2012-11-29 16:25:00
10:31 AM,59.0,48.2,67,30.38,10.0,ENE,9.2,-,N/A,Rain,Light Rain,70,2012-11-29 16:31:00
10:34 AM,59.0,48.2,67,30.38,10.0,ENE,11.5,-,N/A,,Scattered Clouds,70,2012-11-29 16:34:00
10:37 AM,59.0,48.2,67,30.38,10.0,ENE,10.4,-,N/A,,Mostly Cloudy,70,2012-11-29 16:37:00
10:55 AM,58.8,48.4,68,30.36,10.0,ENE,9.2,-,0.00,,Mostly Cloudy,60,2012-11-29 16:55:00
10:58 AM,59.0,48.2,67,30.36,10.0,ENE,9.2,-,N/A,,Mostly Cloudy,60,2012-11-29 16:58:00
11:21 AM,60.8,50.0,68,30.36,10.0,East,8.1,-,N/A,,Scattered Clouds,80,2012-11-29 17:21:00
11:55 AM,61.3,49.8,66,30.34,10.0,ENE,8.1,-,N/A,,Partly Cloudy,70,2012-11-29 17:55:00
12:16 PM,62.6,50.0,63,30.33,10.0,East,5.8,-,N/A,,Mostly Cloudy,100,2012-11-29 18:16:00
12:45 PM,62.6,50.0,63,30.32,10.0,Variable,6.9,-,N/A,,Light Drizzle,0,2012-11-29 18:45:00
12:54 PM,62.6,50.0,63,30.31,10.0,Variable,4.6,-,N/A,,Light Drizzle,0,2012-11-29 18:54:00
12:55 PM,62.6,50.4,64,30.31,10.0,Variable,3.5,-,0.00,,Scattered Clouds,0,2012-11-29 18:55:00
12:56 PM,62.6,50.0,63,30.31,10.0,Variable,3.5,-,N/A,,Mostly Cloudy,0,2012-11-29 18:56:00
1:05 PM,62.6,50.0,63,30.30,10.0,East,5.8,-,N/A,Rain,Light Rain,80,2012-11-29 19:05:00
1:12 PM,62.6,50.0,63,30.30,10.0,East,4.6,-,N/A,,Partly Cloudy,80,2012-11-29 19:12:00
1:35 PM,62.6,51.8,68,30.29,10.0,ESE,3.5,-,N/A,,Light Drizzle,110,2012-11-29 19:35:00
1:50 PM,62.6,50.0,63,30.29,10.0,ESE,3.5,-,N/A,,Clear,120,2012-11-29 19:50:00
1:55 PM,62.6,50.9,66,30.29,10.0,Calm,Calm,-,0.00,,Clear,0,2012-11-29 19:55:00
2:04 PM,64.4,51.8,64,30.28,10.0,SSE,6.9,-,N/A,Rain,Light Rain,160,2012-11-29 20:04:00
2:11 PM,64.4,51.8,64,30.28,10.0,ESE,4.6,-,N/A,,Clear,110,2012-11-29 20:11:00
2:24 PM,62.6,51.8,68,30.29,10.0,SSE,6.9,-,N/A,Rain,Light Rain,160,2012-11-29 20:24:00
2:43 PM,62.6,51.8,68,30.29,10.0,South,8.1,-,N/A,,Clear,190,2012-11-29 20:43:00
2:55 PM,63.3,51.8,66,30.28,10.0,SSE,6.9,-,0.00,,Clear,160,2012-11-29 20:55:00
2:57 PM,62.6,51.8,68,30.29,10.0,South,8.1,-,N/A,Rain,Light Rain,170,2012-11-29 20:57:00
3:04 PM,62.6,51.8,68,30.28,10.0,SSE,6.9,-,N/A,,Clear,160,2012-11-29 21:04:00
3:52 PM,60.8,50.0,68,30.29,10.0,SSE,6.9,-,N/A,Rain,Light Rain,160,2012-11-29 21:52:00
3:55 PM,61.5,50.5,67,30.29,10.0,SSE,4.6,-,0.00,Rain,Light Rain,160,2012-11-29 21:55:00
3:59 PM,60.8,50.0,68,30.29,10.0,SSE,3.5,-,N/A,,Clear,160,2012-11-29 21:59:00
4:11 PM,60.8,50.0,68,30.28,10.0,Calm,Calm,-,N/A,,Light Drizzle,0,2012-11-29 22:11:00
4:12 PM,60.8,50.0,68,30.28,10.0,Calm,Calm,-,N/A,,Clear,0,2012-11-29 22:12:00
4:55 PM,60.3,49.8,68,30.29,10.0,Calm,Calm,-,0.00,,Clear,0,2012-11-29 22:55:00
5:24 PM,55.4,50.0,82,30.28,10.0,Calm,Calm,-,N/A,,Mostly Cloudy,0,2012-11-29 23:24:00
5:55 PM,55.6,51.4,86,30.28,10.0,North,3.5,-,N/A,,Overcast,360,2012-11-29 23:55:00
6:24 PM,53.6,50.0,88,30.29,10.0,North,5.8,-,N/A,,Scattered Clouds,10,2012-11-30 00:24:00
6:33 PM,51.8,50.0,94,30.29,10.0,North,3.5,-,N/A,,Mostly Cloudy,10,2012-11-30 00:33:00
6:55 PM,54.0,52.2,94,30.30,10.0,Calm,Calm,-,N/A,,Overcast,0,2012-11-30 00:55:00
7:10 PM,53.6,51.8,94,30.30,10.0,North,4.6,-,N/A,,Scattered Clouds,10,2012-11-30 01:10:00
7:23 PM,53.6,51.8,94,30.30,10.0,NNE,4.6,-,N/A,,Mostly Cloudy,20,2012-11-30 01:23:00
7:55 PM,54.9,51.6,89,30.30,10.0,NNE,3.5,-,N/A,,Overcast,20,2012-11-30 01:55:00
8:55 PM,54.0,50.7,89,30.31,10.0,NNE,4.6,-,N/A,,Overcast,20,2012-11-30 02:55:00
9:55 PM,53.6,51.1,91,30.30,10.0,NE,4.6,-,N/A,,Mostly Cloudy,50,2012-11-30 03:55:00
9:58 PM,53.6,51.8,94,30.30,10.0,NE,5.8,-,N/A,,Mostly Cloudy,50,2012-11-30 03:58:00
10:38 PM,53.6,51.8,94,30.29,10.0,NE,4.6,-,N/A,,Mostly Cloudy,50,2012-11-30 04:38:00
10:55 PM,54.3,51.3,89,30.29,10.0,ENE,5.8,-,N/A,,Overcast,60,2012-11-30 04:55:00
11:15 PM,53.6,50.0,88,30.28,10.0,NE,4.6,-,N/A,,Mostly Cloudy,50,2012-11-30 05:15:00
11:55 PM,53.8,50.9,90,30.28,10.0,NE,5.8,-,N/A,,Mostly Cloudy,40,2012-11-30 05:55:00